Vorticity
5 5 4 5 5 5 5 6 5 5 5 5 5 5 5 6 6 5 5 6 5 5 5 5 4 5 5 5 6 6 6 6 6 6 6 7 7 7 7 6 6 5 5 6 9 10 12 15 14 13 12 10 8 21 40 25 0 -2 -2 -1 1 1 1 1 2 3 4 5 4 4 4 5 5 5 5 4 5 5 5 5 4 4 6 7 8
4 5 6 6 5 5 5 5 6 4 3 4 4 5 5 5 5 4 4 4 5 4 4 5 4 4 4 4 5 5 5 6 6 6 6 7 7 7 6 7 7 6 5 3 4 6 8 13 15 15 13 13 8 8 25 30 16 10 7 5 3 3 3 2 2 3 3 4 5 5 4 4 5 5 5 4 4 4 4 4 4 4 4 6 7
4 4 6 7 5 4 5 5 7 6 3 3 5 6 5 5 5 6 5 5 4 3 3 4 4 4 4 4 5 5 6 6 6 6 6 7 8 8 6 6 7 6 7 5 4 3 4 7 8 10 11 12 14 12 16 20 18 16 13 13 12 9 8 5 4 4 3 4 4 5 5 5 4 4 5 5 4 3 4 4 4 4 4 4 6
5 5 6 6 6 5 3 4 5 7 6 4 4 5 5 5 5 6 7 6 6 4 4 4 5 5 4 4 5 5 6 6 6 7 6 6 8 8 7 7 7 6 6 6 6 4 4 5 5 6 11 11 11 14 16 15 14 14 12 12 14 15 16 14 9 6 5 4 4 5 5 5 5 5 5 5 5 4 3 3 4 3 4 4 4
5 7 6 5 8 7 5 5 4 4 4 3 4 4 4 4 3 5 5 6 7 7 5 3 4 5 4 4 5 5 6 6 6 7 6 7 7 7 8 8 8 7 6 6 5 6 6 6 6 6 8 10 9 10 10 9 10 12 13 13 13 13 15 18 17 13 9 6 4 4 5 5 5 5 5 5 5 5 4 3 4 3 3 3 4
5 5 5 4 5 6 6 7 5 3 3 2 4 3 3 3 3 4 5 5 6 7 8 6 5 6 5 5 5 6 7 7 6 6 7 7 7 7 7 8 8 8 7 7 5 5 6 7 7 7 7 8 8 9 8 8 8 9 11 12 13 12 12 15 18 19 17 13 9 5 3 5 6 6 5 5 5 5 5 4 3 4 4 3 3
4 3 4 4 4 4 5 4 3 3 4 3 4 3 2 2 3 3 4 5 6 6 8 8 6 6 6 6 6 7 7 7 7 6 7 7 7 6 7 8 7 7 7 7 7 6 6 7 7 7 8 9 7 7 6 6 8 10 12 13 13 14 12 12 13 14 16 17 16 13 7 3 4 6 5 4 5 4 4 5 4 3 4 4 4
5 4 3 3 4 4 4 3 3 5 5 5 4 3 1 2 3 3 4 5 6 6 7 8 8 6 5 6 7 7 7 7 7 6 7 7 7 6 7 8 7 7 7 6 6 7 7 6 7 7 8 10 9 7 7 5 6 7 9 11 13 14 15 15 13 11 9 10 12 15 16 10 3 3 5 5 4 5 4 4 5 4 4 4 4
7 6 5 4 3 4 4 3 3 4 4 5 6 5 2 3 4 4 4 5 5 6 6 7 8 7 5 5 7 8 7 7 7 6 7 7 7 7 7 7 7 6 6 6 6 6 7 7 7 6 7 9 8 7 7 7 10 9 6 6 7 8 12 15 17 16 13 9 8 9 16 21 13 3 2 5 4 4 4 4 4 4 4 4 4
8 6 4 4 3 3 2 1 1 1 1 3 7 7 3 3 5 4 4 5 5 5 6 7 7 7 6 5 6 7 8 8 8 7 7 8 7 8 7 7 7 7 6 6 6 6 6 7 7 7 6 8 8 8 7 7 9 9 7 6 3 4 6 9 14 18 18 14 10 7 8 20 26 15 3 2 5 4 4 4 4 4 4 4 4
5 5 3 2 1 1 0 0 2 1 1 2 5 5 3 4 6 5 5 5 5 5 5 6 6 6 6 5 5 7 8 8 7 7 8 8 8 8 8 8 8 8 8 7 6 7 6 7 7 7 6 6 7 7 7 7 7 8 8 6 5 5 4 4 8 12 17 18 15 10 4 8 21 24 15 6 3 3 4 4 3 3 4 4 4
2 2 2 1 0 1 2 3 4 3 4 5 5 6 5 6 6 5 6 6 6 6 6 6 6 6 6 5 5 6 7 7 5 7 8 8 8 8 7 7 9 8 9 9 8 7 7 7 7 6 6 5 6 6 5 6 5 6 7 6 6 6 5 4 5 5 9 14 18 18 12 7 8 14 20 20 14 5 3 5 5 3 3 4 5
2 2 2 2 3 3 5 6 7 6 9 9 8 9 8 8 8 6 7 8 8 7 7 7 6 7 6 6 6 5 6 6 5 6 7 8 7 8 7 7 7 8 9 9 9 9 8 8 8 7 5 4 4 5 4 4 4 5 5 5 6 6 7 6 5 5 4 5 10 16 18 17 12 8 9 17 23 16 6 4 5 5 4 3 4
2 3 3 4 7 9 8 7 9 10 12 12 11 12 12 11 10 9 8 8 9 8 8 8 7 7 6 6 6 4 5 5 5 6 6 7 6 6 7 7 7 6 7 8 8 9 9 9 9 8 6 5 4 4 3 3 2 3 4 5 6 6 6 6 5 6 5 3 4 7 11 15 17 18 13 9 14 19 16 9 5 5 5 5 5
4 5 4 6 9 11 8 7 10 11 11 12 12 12 12 11 9 8 8 7 8 9 9 9 9 7 6 6 6 5 5 4 4 5 6 6 5 4 5 5 6 6 6 7 7 7 8 10 9 9 8 6 6 5 5 4 3 3 4 5 7 7 7 7 7 6 5 5 4 3 4 6 9 14 18 15 11 12 16 17 12 7 4 4 6
4 6 7 9 10 9 8 9 10 10 10 10 10 9 9 8 7 7 7 7 8 9 9 10 10 8 6 7 7 6 6 4 3 4 6 6 4 3 4 3 3 4 5 6 7 6 6 8 9 9 9 8 8 7 6 6 5 4 5 6 7 9 10 9 9 8 7 6 5 5 3 3 3 4 9 14 15 13 12 15 17 14 10 6 4
4 9 9 10 8 7 9 9 9 9 9 9 9 9 9 8 9 9 9 8 7 8 9 10 10 8 7 6 7 7 6 4 4 3 4 5 5 3 4 4 3 3 4 5 7 6 5 6 8 8 8 7 7 7 7 7 7 6 6 7 8 9 11 12 12 10 9 8 7 6 5 4 3 2 3 4 8 12 12 13 15 16 16 13 10
6 10 9 8 8 8 9 9 8 9 8 8 8 7 7 7 8 9 9 9 10 10 10 9 9 9 8 7 7 7 7 6 5 4 3 3 4 4 3 5 5 3 3 4 5 6 6 6 6 7 8 9 8 6 5 5 6 6 6 7 8 10 10 11 13 14 13 12 9 8 7 7 6 4 4 3 3 4 6 9 11 13 15 15 14
9 9 8 8 7 8 9 9 8 7 7 7 8 9 11 11 10 9 8 9 9 10 10 10 9 9 9 8 7 8 8 7 6 5 4 3 3 3 3 5 5 4 3 3 4 5 6 6 6 7 7 9 11 9 6 5 4 4 5 6 8 10 10 9 10 12 13 14 14 13 11 9 8 7 6 5 5 3 3 4 5 7 9 11 13
10 8 8 8 8 8 10 10 9 9 9 9 9 10 11 12 13 12 11 11 10 10 10 10 10 10 9 8 8 8 8 8 7 6 5 4 3 3 3 4 4 4 4 4 4 3 4 5 5 8 8 7 9 10 9 7 5 4 5 6 8 8 9 9 9 8 9 11 13 14 15 15 13 12 10 8 7 6 5 4 4 4 5 6 9
9 8 8 7 8 10 10 10 9 8 8 7 6 6 8 9 10 10 11 11 10 9 9 10 10 10 10 9 8 8 7 7 7 7 6 5 4 4 2 2 2 3 4 4 4 4 5 5 4 5 7 7 6 7 9 7 5 5 5 7 10 9 7 8 9 7 7 7 8 9 11 13 15 15 15 14 12 10 8 7 6 5 4 4 5
9 7 7 7 9 10 11 9 7 7 7 8 10 10 11 10 9 10 11 12 11 10 9 9 11 11 10 10 8 8 8 7 7 6 6 6 5 5 4 3 2 2 2 3 4 5 6 6 6 5 6 7 6 6 7 7 5 4 4 7 9 8 6 7 8 7 6 6 6 7 7 8 10 11 13 14 15 15 14 13 11 9 8 6 5
7 6 6 9 11 9 8 8 9 10 10 10 10 9 9 10 12 12 11 11 13 14 11 7 8 11 12 13 12 10 9 8 8 8 7 6 5 5 5 4 4 3 2 2 3 4 5 6 6 7 8 8 7 6 5 5 6 6 5 6 7 7 4 4 6 6 5 4 4 5 6 7 7 7 8 10 11 12 13 15 15 14 13 12 11
6 6 8 9 11 7 2 6 11 9 7 6 6 7 10 13 17 20 22 25 28 32 29 15 7 7 8 11 13 13 13 12 11 11 10 9 8 7 7 6 5 5 4 3 2 2 3 4 5 6 8 9 8 5 4 4 5 6 6 6 7 6 3 3 4 4 3 3 3 3 3 4 5 5 6 6 8 9 9 11 12 13 13 13 14
5 7 9 11 12 4 -0 6 8 3 4 5 3 5 8 13 17 21 24 23 21 29 36 30 21 16 13 12 12 12 12 11 10 11 11 11 12 11 9 9 7 6 6 6 5 3 2 4 4 5 6 9 11 9 6 5 5 5 6 7 7 6 4 3 3 3 3 2 2 3 2 2 3 3 4 4 5 6 6 7 8 10 11 11 11
6 10 10 10 8 4 5 8 5 2 3 3 2 3 5 10 14 13 3 -8 -8 5 18 22 22 22 22 22 21 20 17 13 8 5 4 5 8 10 12 13 12 10 9 9 9 7 5 4 3 3 4 5 8 10 8 7 7 8 7 7 7 5 3 3 3 4 3 3 2 2 2 2 2 2 3 3 3 4 4 5 6 7 9 10 10
9 11 8 6 6 10 10 3 2 0 -4 0 8 8 6 7 9 8 -2 -10 -4 4 8 9 10 12 15 16 17 19 22 24 21 14 7 2 3 6 11 15 15 13 11 10 10 10 8 6 5 4 5 5 5 7 8 8 7 8 9 9 8 6 4 3 4 4 4 4 3 3 3 2 2 2 3 3 3 3 2 3 4 6 8 9 10
12 9 5 3 5 10 3 -5 2 1 -3 9 18 13 8 6 6 6 4 2 4 5 5 6 7 8 11 13 14 14 14 17 20 19 15 10 8 9 11 15 15 13 10 9 9 10 9 8 6 6 7 8 7 6 7 8 7 6 7 9 9 8 6 4 4 6 6 5 4 4 4 3 3 3 3 4 4 4 4 2 2 3 5 7 8
10 4 2 1 3 7 2 1 9 7 7 16 15 8 6 4 4 4 4 4 3 2 3 3 3 5 7 11 15 15 13 10 9 11 13 14 14 15 16 19 19 15 9 6 6 7 7 7 7 7 7 8 9 8 7 7 7 6 6 8 10 10 8 5 5 6 7 6 6 5 5 4 5 5 4 5 4 4 5 4 4 4 4 6 6
5 2 3 5 7 10 9 10 13 12 12 11 6 5 6 5 6 6 5 5 4 3 3 2 2 2 3 5 8 11 12 11 8 7 9 11 12 14 16 20 24 23 15 9 6 5 6 7 5 4 3 4 5 7 8 8 6 5 5 7 9 11 10 8 6 5 5 6 8 8 7 6 6 7 7 7 6 5 4 4 5 5 5 6 7
4 5 7 10 13 15 15 15 14 11 7 4 2 3 3 3 4 4 5 7 7 7 7 5 3 3 3 3 4 6 8 9 9 8 8 11 12 12 15 18 24 26 21 14 9 6 6 6 5 2 0 0 2 3 4 7 7 6 6 7 9 10 9 9 9 8 6 4 6 8 8 7 7 7 8 7 6 5 3 2 2 3 3 4 7
4 7 8 12 14 13 12 9 6 3 0 -1 -0 -1 -2 -2 -2 -2 1 2 4 7 9 8 7 4 3 4 4 4 5 6 9 9 9 10 12 14 17 21 25 25 21 16 12 11 10 10 9 7 5 6 9 7 4 4 6 7 7 7 8 9 9 7 7 7 5 2 1 3 5 5 5 4 4 3 2 1 -0 -0 1 1 2 3 5
6 10 11 11 8 4 3 2 1 0 0 0 0 -0 0 1 1 2 2 1 2 3 5 8 8 6 4 4 5 4 2 3 7 10 11 9 11 13 15 23 28 24 18 14 12 12 12 13 13 12 10 9 10 10 8 6 6 7 9 8 8 9 10 7 4 5 6 5 2 1 3 4 1 -2 -4 -4 -6 -7 -5 -0 5 7 8 7 8
12 12 8 4 1 1 2 4 4 3 2 3 2 2 3 3 4 5 4 5 6 5 5 7 8 7 4 4 6 5 2 2 4 8 11 10 11 11 12 18 23 20 15 13 11 9 6 6 11 13 13 10 7 8 9 8 9 9 9 10 9 8 7 4 0 -1 -0 2 3 3 2 1 -1 -6 -9 -8 -10 -10 -6 3 11 15 14 13 11
8 3 0 0 2 3 4 5 5 4 4 3 3 2 2 2 3 3 5 5 6 6 7 7 9 8 5 4 7 7 4 4 3 5 9 10 9 8 9 13 15 14 14 14 14 13 9 6 7 11 15 15 11 9 9 9 9 10 10 10 10 9 7 6 5 2 -2 -4 -3 -3 -4 -6 -7 -9 -10 -8 -6 -4 1 6 11 13 13 13 12
2 0 1 3 4 5 6 5 5 5 5 4 3 4 4 5 5 5 7 7 6 7 8 8 10 9 6 5 6 6 6 5 4 5 8 9 7 6 7 10 11 12 15 17 18 18 17 14 12 10 13 16 14 13 12 9 10 11 11 11 12 12 10 10 10 9 5 1 -4 -6 -8 -10 -11 -11 -9 -4 2 7 11 12 10 9 9 9 10
3 4 3 3 4 6 7 7 6 5 4 4 4 4 6 7 7 7 7 7 8 8 9 11 12 11 9 7 5 5 5 5 5 7 9 9 8 7 8 9 10 11 13 16 18 18 17 16 15 14 13 14 14 13 6 2 5 12 13 15 19 21 20 18 17 17 16 14 11 7 3 -1 -2 -2 -1 3 10 14 15 15 12 10 9 9 10
2 3 4 7 9 11 11 10 8 7 4 3 1 0 1 4 5 5 6 7 6 7 9 13 17 16 12 11 9 5 4 6 7 7 8 9 9 8 8 9 9 10 10 11 13 14 16 16 17 17 13 10 13 15 11 6 10 15 16 15 16 16 16 17 19 21 20 19 19 20 20 17 15 14 13 13 12 11 11 12 11 11 11 11 10
2 6 10 11 12 11 10 8 6 4 2 0 -1 -2 -3 -1 3 5 6 7 8 8 10 15 21 19 13 15 15 7 5 8 9 7 6 7 9 7 6 7 9 11 11 11 12 12 13 14 15 16 14 12 14 17 15 12 11 10 10 9 8 7 8 10 12 13 15 14 14 20 24 23 19 17 15 12 8 7 10 11 11 12 13 13 12
6 11 11 9 6 3 2 1 1 2 2 1 0 -1 -2 0 3 5 6 7 8 9 10 15 21 17 12 17 16 8 8 10 7 6 5 7 9 7 6 9 10 11 12 12 12 10 7 6 4 4 5 7 9 8 7 7 6 6 7 7 8 10 10 11 11 11 13 14 12 13 13 12 10 9 8 7 6 7 10 10 11 11 13 15 17
8 8 4 0 -2 -3 -2 -0 1 2 3 2 1 1 2 3 5 6 7 8 8 9 10 14 19 17 14 16 11 7 11 11 5 4 7 10 10 5 6 12 14 13 11 8 5 2 -0 -0 -0 -1 1 5 8 8 9 10 9 10 12 12 13 14 14 15 15 15 14 13 10 6 5 6 7 7 9 10 10 11 11 11 12 13 14 17 18
5 1 -4 -5 -2 -0 2 2 3 4 4 3 2 3 4 5 7 8 8 8 8 9 10 13 16 15 12 10 8 9 13 10 4 4 8 10 8 4 7 14 18 14 6 0 -1 -1 2 4 2 2 4 6 9 9 9 9 9 12 14 15 15 15 15 16 16 17 17 13 10 7 7 10 12 9 9 10 10 11 12 12 13 14 16 17 17
0 -1 -1 2 5 5 5 4 5 6 5 4 3 3 5 8 10 11 11 10 10 11 13 14 15 13 9 7 10 13 12 7 4 6 9 9 6 5 5 12 21 14 -1 -1 2 -1 4 9 4 2 7 8 8 7 6 6 8 11 11 11 10 10 10 12 13 15 17 16 15 13 9 11 12 9 8 9 10 10 11 14 16 16 16 15 13
2 3 4 5 5 5 5 6 8 8 6 4 2 1 5 11 13 14 15 13 13 16 19 19 17 13 11 12 16 15 9 5 5 7 10 9 7 6 4 9 19 12 1 8 7 -5 1 11 6 3 10 10 5 4 5 7 9 10 9 9 10 10 11 12 12 13 13 12 13 13 12 13 13 12 14 16 16 18 21 21 20 18 17 15 14
4 4 4 3 2 3 3 3 7 8 6 2 1 -0 4 12 16 16 16 16 18 20 21 21 20 17 16 15 14 11 7 5 6 6 7 7 8 9 6 6 13 13 9 10 1 -8 1 11 6 5 10 8 4 4 6 9 9 9 8 9 11 12 12 11 11 13 13 11 11 13 17 19 15 17 22 21 20 24 25 21 17 16 15 14 14
2 2 3 3 2 1 2 2 4 7 6 3 1 0 4 12 16 14 14 14 16 18 18 17 15 15 15 12 8 8 9 8 7 6 6 8 9 10 8 6 8 12 13 7 -1 -3 2 5 4 7 8 7 6 6 6 8 11 10 10 9 10 10 9 8 12 16 15 15 15 15 19 19 15 17 21 20 20 24 20 14 13 13 13 14 14
3 2 2 3 1 1 4 7 6 7 7 4 -0 -0 7 14 13 11 12 10 10 12 13 11 10 11 11 9 6 8 10 8 6 6 6 9 9 8 9 8 7 9 11 7 4 3 -1 -1 5 9 8 8 8 7 9 11 13 13 11 9 7 6 6 8 15 18 18 19 21 19 20 19 14 14 19 19 20 21 16 11 12 13 13 13 12
3 1 3 2 -0 1 5 11 17 16 11 6 0 -1 8 15 12 8 9 8 8 10 8 7 10 11 10 8 7 8 8 6 6 7 8 8 9 8 9 9 7 9 10 7 5 3 -2 0 9 11 9 8 7 9 13 14 14 13 10 6 6 8 13 17 20 20 19 20 20 18 19 19 15 16 20 19 17 16 14 12 12 13 13 13 12
1 2 4 1 0 5 7 12 25 27 14 5 1 -1 5 13 12 8 7 7 8 8 6 7 10 11 9 9 9 7 7 8 8 9 8 7 8 10 11 11 9 9 10 7 5 4 4 7 12 12 10 10 12 15 15 12 10 8 5 6 11 18 22 23 20 17 17 18 13 9 13 16 16 18 19 17 14 14 13 11 12 13 14 13 14
0 3 5 3 5 11 10 10 19 22 12 6 4 1 3 10 12 8 6 6 7 7 7 9 10 11 9 7 7 8 7 9 11 9 6 6 9 11 11 11 10 8 8 9 7 7 9 12 13 11 11 14 16 15 11 8 6 7 10 17 24 25 24 22 18 12 13 15 7 4 12 18 17 16 16 15 14 13 13 13 12 13 14 14 15
2 4 4 5 7 8 9 9 11 12 8 7 5 2 2 7 11 10 5 5 7 8 10 11 10 11 11 8 8 9 9 10 10 7 4 6 10 11 10 9 10 9 8 10 10 11 13 14 13 12 13 14 12 8 7 8 12 18 23 27 25 21 17 16 12 7 11 14 10 9 18 21 16 13 13 13 12 10 14 19 17 14 15 15 16
Height
5935 5935 5935 5935 5936 5936 5936 5936 5937 5937 5937 5937 5937 5936 5936 5936 5935 5935 5935 5933 5932 5931 5930 5929 5928 5927 5927 5926 5926 5926 5926 5926 5926 5925 5925 5924 5923 5923 5922 5921 5920 5919 5919 5919 5918 5918 5919 5919 5919 5919 5918 5918 5917 5916 5916 5918 5919 5921 5922 5922 5923 5923 5923 5923 5922 5922 5921 5921 5920 5920 5920 5920 5920 5920 5921 5921 5921 5921 5921 5921 5921 5921 5921 5921 5921
5936 5935 5935 5936 5937 5936 5937 5937 5938 5938 5938 5938 5937 5937 5937 5936 5936 5936 5936 5935 5933 5932 5931 5930 5928 5927 5927 5926 5926 5926 5926 5926 5926 5925 5925 5925 5924 5923 5922 5921 5921 5920 5920 5919 5919 5919 5920 5920 5919 5918 5917 5917 5916 5915 5915 5916 5917 5918 5919 5920 5921 5921 5922 5922 5922 5922 5921 5921 5920 5920 5920 5920 5920 5920 5920 5920 5920 5920 5920 5920 5920 5920 5921 5921 5921
5936 5936 5937 5937 5937 5938 5938 5938 5939 5939 5938 5938 5938 5937 5937 5937 5937 5937 5936 5935 5934 5932 5931 5930 5929 5928 5927 5926 5926 5926 5926 5926 5926 5926 5925 5925 5924 5923 5922 5921 5921 5920 5920 5920 5920 5920 5920 5920 5918 5917 5917 5916 5916 5915 5915 5915 5916 5917 5918 5918 5919 5919 5919 5920 5920 5920 5921 5921 5920 5920 5920 5920 5920 5920 5920 5920 5919 5919 5919 5919 5919 5919 5920 5920 5920
5937 5937 5938 5938 5939 5939 5939 5939 5939 5939 5938 5938 5938 5938 5937 5937 5937 5936 5936 5935 5933 5932 5931 5930 5929 5928 5927 5927 5926 5926 5926 5926 5926 5926 5925 5925 5924 5923 5922 5922 5921 5920 5920 5920 5921 5920 5920 5919 5917 5917 5917 5916 5916 5915 5915 5915 5915 5915 5916 5916 5917 5917 5917 5917 5918 5918 5919 5919 5920 5920 5920 5920 5920 5919 5919 5919 5919 5919 5919 5919 5919 5919 5919 5920 5920
5937 5938 5939 5939 5939 5939 5939 5939 5939 5938 5938 5938 5938 5938 5937 5936 5936 5936 5935 5934 5933 5932 5931 5930 5929 5929 5928 5927 5927 5926 5926 5926 5925 5925 5925 5924 5923 5923 5922 5922 5921 5920 5920 5920 5921 5920 5919 5918 5917 5918 5917 5916 5916 5915 5915 5914 5914 5914 5914 5915 5915 5915 5915 5915 5916 5916 5917 5918 5918 5919 5919 5919 5919 5919 5919 5919 5919 5919 5919 5919 5919 5919 5919 5919 5920
5938 5938 5939 5939 5939 5940 5939 5939 5939 5939 5938 5938 5938 5938 5937 5936 5936 5935 5935 5934 5933 5932 5931 5930 5929 5929 5928 5927 5927 5926 5926 5925 5925 5924 5924 5924 5923 5922 5922 5922 5921 5921 5920 5920 5920 5920 5919 5918 5918 5918 5917 5916 5916 5915 5914 5914 5914 5914 5913 5913 5913 5913 5913 5914 5914 5914 5915 5916 5916 5917 5917 5918 5918 5918 5919 5919 5919 5919 5920 5919 5919 5919 5919 5919 5919
5938 5938 5939 5939 5940 5940 5940 5939 5939 5939 5938 5938 5938 5938 5937 5936 5935 5934 5934 5934 5933 5932 5932 5931 5930 5929 5928 5927 5927 5926 5926 5925 5924 5924 5923 5923 5923 5922 5921 5921 5921 5921 5920 5920 5920 5920 5919 5918 5918 5917 5917 5916 5915 5915 5914 5914 5913 5913 5912 5912 5912 5912 5912 5912 5912 5913 5913 5914 5914 5915 5915 5916 5916 5917 5917 5918 5918 5919 5919 5919 5920 5920 5919 5919 5919
5938 5939 5939 5940 5940 5940 5940 5939 5939 5939 5938 5938 5937 5937 5936 5936 5935 5934 5933 5933 5933 5932 5932 5931 5930 5929 5928 5927 5926 5926 5925 5925 5924 5923 5922 5922 5922 5921 5921 5921 5920 5920 5920 5920 5920 5920 5919 5918 5917 5917 5916 5916 5915 5914 5913 5913 5913 5913 5912 5911 5911 5910 5910 5910 5911 5911 5911 5911 5912 5912 5913 5913 5914 5914 5915 5916 5917 5917 5918 5919 5919 5919 5919 5919 5919
5939 5940 5940 5940 5940 5940 5940 5940 5939 5939 5938 5937 5937 5936 5936 5935 5934 5933 5933 5932 5932 5931 5931 5931 5930 5929 5927 5926 5926 5926 5925 5924 5923 5922 5922 5921 5921 5921 5920 5920 5920 5919 5920 5920 5919 5919 5919 5918 5917 5916 5916 5916 5915 5914 5913 5913 5913 5912 5912 5911 5910 5910 5909 5909 5909 5909 5909 5909 5910 5910 5910 5911 5912 5912 5913 5914 5915 5916 5916 5917 5917 5917 5918 5917 5918
5940 5940 5941 5941 5940 5940 5940 5939 5939 5938 5938 5937 5936 5936 5935 5934 5934 5933 5932 5932 5931 5930 5930 5930 5929 5928 5927 5926 5925 5925 5924 5923 5923 5922 5921 5921 5920 5919 5919 5919 5919 5919 5919 5919 5919 5919 5918 5918 5917 5916 5916 5915 5915 5914 5913 5913 5912 5911 5911 5910 5910 5909 5908 5908 5908 5907 5907 5907 5908 5908 5908 5909 5909 5910 5911 5911 5913 5914 5914 5915 5915 5915 5915 5915 5916
5940 5941 5941 5941 5940 5940 5940 5939 5939 5938 5938 5937 5936 5935 5935 5934 5933 5932 5932 5931 5930 5930 5929 5929 5928 5927 5926 5925 5925 5924 5923 5923 5922 5921 5920 5920 5920 5919 5918 5918 5918 5918 5918 5918 5918 5918 5918 5917 5917 5916 5915 5915 5914 5913 5912 5912 5911 5911 5910 5909 5908 5908 5907 5907 5906 5906 5906 5906 5906 5906 5906 5906 5907 5908 5909 5910 5911 5912 5912 5912 5912 5913 5913 5914 5914
5940 5940 5941 5940 5940 5939 5939 5938 5938 5938 5937 5936 5935 5935 5934 5933 5932 5931 5931 5930 5930 5929 5929 5928 5928 5927 5926 5925 5924 5923 5923 5922 5922 5921 5920 5919 5919 5918 5917 5917 5917 5917 5917 5916 5917 5917 5916 5916 5916 5916 5915 5914 5913 5912 5912 5911 5910 5910 5909 5908 5907 5906 5906 5906 5905 5905 5905 5905 5905 5904 5905 5905 5905 5906 5907 5907 5908 5909 5910 5910 5910 5911 5911 5912 5913
5940 5940 5940 5940 5939 5939 5938 5937 5937 5937 5936 5935 5934 5934 5933 5932 5931 5930 5930 5929 5929 5928 5928 5927 5927 5926 5925 5924 5924 5923 5922 5921 5921 5920 5919 5918 5918 5918 5917 5916 5916 5916 5915 5915 5915 5915 5915 5915 5915 5915 5914 5914 5913 5912 5911 5910 5909 5909 5908 5907 5906 5905 5905 5904 5904 5904 5904 5904 5903 5903 5903 5903 5904 5904 5905 5905 5906 5907 5907 5907 5908 5909 5909 5910 5911
5939 5939 5939 5939 5939 5938 5937 5936 5936 5936 5935 5934 5933 5932 5932 5931 5930 5929 5928 5928 5927 5926 5926 5926 5925 5925 5924 5923 5923 5922 5921 5920 5920 5920 5919 5918 5917 5917 5917 5916 5916 5915 5914 5914 5914 5914 5914 5914 5913 5913 5913 5912 5912 5911 5910 5909 5908 5908 5907 5907 5906 5905 5904 5903 5902 5902 5902 5902 5902 5902 5902 5902 5902 5902 5903 5903 5903 5904 5904 5905 5906 5906 5907 5908 5909
5939 5939 5939 5938 5938 5937 5936 5936 5935 5935 5934 5932 5931 5931 5931 5929 5928 5927 5926 5925 5924 5924 5924 5924 5924 5923 5923 5922 5921 5920 5920 5919 5919 5919 5918 5917 5915 5915 5915 5915 5915 5915 5914 5913 5913 5913 5913 5912 5912 5912 5911 5911 5910 5909 5909 5908 5907 5907 5906 5905 5905 5904 5903 5902 5901 5901 5900 5900 5900 5901 5901 5901 5900 5901 5900 5900 5901 5901 5902 5903 5903 5904 5905 5906 5906
5938 5938 5937 5937 5937 5936 5935 5934 5934 5933 5932 5931 5930 5929 5928 5927 5926 5925 5924 5923 5922 5922 5922 5922 5922 5921 5921 5920 5919 5919 5919 5918 5917 5917 5917 5917 5915 5913 5913 5913 5913 5913 5913 5912 5911 5912 5911 5911 5911 5910 5909 5909 5908 5908 5907 5906 5906 5905 5905 5904 5903 5902 5902 5901 5900 5900 5899 5899 5899 5899 5899 5899 5899 5899 5898 5899 5899 5899 5899 5899 5900 5901 5902 5903 5904
5937 5937 5936 5935 5935 5935 5934 5933 5932 5931 5930 5929 5928 5927 5926 5925 5924 5923 5922 5921 5920 5919 5920 5919 5919 5919 5918 5918 5918 5917 5917 5916 5916 5916 5916 5915 5914 5913 5912 5911 5911 5911 5911 5910 5910 5910 5910 5910 5909 5909 5908 5907 5906 5905 5905 5905 5905 5904 5903 5903 5902 5901 5900 5900 5899 5898 5898 5897 5897 5897 5897 5897 5897 5897 5897 5897 5897 5897 5897 5897 5898 5898 5899 5900 5901
5936 5935 5935 5934 5934 5933 5933 5932 5931 5930 5929 5928 5927 5925 5924 5923 5922 5921 5921 5920 5919 5918 5917 5917 5916 5916 5916 5915 5915 5915 5915 5915 5914 5914 5913 5913 5913 5912 5910 5910 5909 5908 5908 5908 5908 5908 5907 5908 5908 5907 5907 5906 5905 5903 5902 5902 5902 5902 5902 5901 5900 5899 5899 5898 5897 5897 5896 5896 5895 5895 5895 5895 5895 5895 5895 5895 5895 5895 5895 5895 5896 5896 5897 5897 5898
5934 5933 5933 5933 5933 5932 5932 5931 5930 5929 5928 5926 5925 5923 5922 5921 5920 5919 5919 5918 5918 5917 5915 5914 5914 5913 5913 5913 5913 5913 5913 5912 5912 5912 5911 5911 5911 5911 5910 5909 5908 5906 5906 5905 5905 5905 5905 5905 5905 5905 5905 5905 5904 5902 5900 5900 5900 5900 5900 5899 5898 5898 5897 5896 5895 5894 5894 5893 5893 5893 5893 5892 5892 5892 5893 5893 5893 5893 5892 5893 5893 5894 5894 5895 5895
5933 5932 5932 5932 5932 5931 5930 5930 5929 5928 5926 5924 5923 5922 5921 5920 5919 5918 5917 5916 5915 5914 5913 5912 5911 5911 5910 5910 5910 5910 5910 5910 5909 5909 5909 5909 5909 5909 5909 5908 5907 5905 5904 5903 5901 5901 5901 5901 5902 5902 5901 5902 5902 5901 5899 5898 5898 5898 5897 5896 5896 5895 5895 5894 5893 5892 5891 5891 5891 5890 5890 5890 5890 5890 5890 5890 5890 5890 5890 5890 5890 5891 5891 5892 5892
5932 5931 5931 5931 5931 5930 5929 5928 5927 5926 5925 5924 5923 5922 5921 5919 5918 5917 5916 5915 5913 5912 5911 5910 5909 5908 5908 5908 5907 5907 5907 5907 5906 5906 5906 5905 5906 5906 5906 5906 5905 5904 5904 5902 5900 5899 5898 5897 5897 5897 5897 5897 5898 5898 5897 5896 5895 5895 5895 5894 5893 5893 5892 5892 5891 5890 5889 5888 5888 5888 5888 5887 5887 5887 5887 5887 5887 5887 5887 5887 5888 5888 5888 5889 5889
5931 5930 5930 5930 5930 5929 5928 5927 5925 5924 5923 5923 5922 5921 5920 5918 5917 5916 5914 5913 5912 5911 5910 5909 5908 5907 5906 5906 5905 5904 5904 5904 5904 5903 5903 5902 5902 5903 5903 5903 5903 5903 5902 5902 5900 5899 5897 5895 5894 5893 5893 5893 5893 5893 5893 5893 5891 5891 5891 5891 5890 5890 5889 5889 5888 5888 5887 5886 5885 5885 5885 5884 5884 5884 5884 5884 5884 5884 5884 5884 5884 5885 5885 5886 5886
5930 5929 5929 5929 5929 5928 5927 5925 5924 5924 5923 5922 5921 5919 5918 5917 5915 5914 5912 5911 5909 5908 5908 5907 5906 5906 5905 5904 5903 5902 5902 5902 5901 5900 5900 5900 5899 5899 5899 5899 5899 5899 5899 5899 5898 5897 5896 5895 5893 5892 5891 5890 5889 5890 5890 5889 5889 5887 5887 5886 5886 5886 5885 5885 5885 5884 5884 5883 5883 5882 5882 5882 5881 5881 5881 5881 5881 5881 5881 5881 5881 5882 5882 5882 5883
5928 5928 5928 5928 5927 5926 5925 5924 5923 5923 5922 5922 5920 5918 5917 5915 5913 5912 5910 5908 5907 5905 5904 5905 5904 5904 5903 5903 5902 5900 5900 5899 5899 5898 5898 5897 5896 5896 5896 5895 5895 5895 5895 5895 5895 5894 5894 5893 5892 5891 5889 5888 5887 5886 5887 5886 5886 5885 5884 5883 5883 5882 5882 5881 5881 5880 5880 5880 5879 5879 5879 5878 5878 5878 5878 5878 5878 5878 5878 5878 5878 5879 5879 5879 5879
5927 5926 5926 5926 5925 5924 5923 5922 5922 5922 5921 5920 5919 5917 5915 5913 5911 5910 5908 5907 5905 5904 5902 5902 5902 5901 5901 5900 5900 5898 5897 5896 5896 5896 5895 5895 5894 5893 5892 5891 5891 5891 5891 5891 5891 5890 5890 5889 5888 5888 5887 5886 5885 5884 5883 5883 5882 5882 5882 5881 5880 5880 5879 5878 5877 5877 5876 5876 5876 5875 5875 5875 5875 5875 5874 5874 5874 5874 5874 5874 5875 5875 5875 5876 5876
5925 5925 5924 5924 5923 5922 5921 5921 5921 5920 5919 5918 5917 5915 5913 5912 5910 5908 5907 5906 5905 5904 5902 5901 5900 5899 5898 5897 5897 5896 5895 5894 5893 5893 5893 5892 5891 5890 5889 5888 5887 5886 5886 5885 5885 5885 5885 5885 5885 5884 5884 5884 5884 5883 5882 5881 5880 5879 5879 5878 5877 5877 5876 5875 5874 5873 5873 5872 5872 5872 5871 5871 5871 5871 5871 5871 5870 5870 5870 5870 5871 5871 5871 5872 5872
5923 5923 5922 5921 5921 5921 5920 5920 5920 5918 5917 5915 5914 5913 5911 5910 5909 5907 5906 5905 5904 5903 5902 5901 5899 5898 5897 5896 5894 5893 5892 5891 5890 5890 5889 5889 5887 5886 5884 5883 5882 5882 5882 5881 5880 5880 5880 5880 5880 5880 5880 5881 5880 5880 5880 5879 5878 5877 5876 5875 5874 5873 5872 5872 5871 5870 5869 5869 5868 5868 5868 5867 5867 5867 5867 5867 5867 5867 5867 5867 5867 5867 5867 5867 5868
5921 5921 5920 5920 5920 5920 5919 5919 5918 5917 5915 5913 5911 5910 5909 5908 5907 5906 5905 5904 5902 5902 5900 5899 5898 5897 5895 5894 5893 5891 5890 5889 5888 5887 5886 5885 5884 5882 5881 5879 5878 5877 5877 5877 5876 5876 5876 5876 5876 5876 5876 5875 5875 5874 5874 5875 5875 5874 5873 5872 5871 5870 5869 5868 5867 5866 5865 5865 5864 5864 5864 5863 5863 5863 5863 5862 5862 5863 5863 5863 5863 5862 5862 5863 5863
5920 5919 5919 5919 5919 5918 5918 5917 5916 5915 5913 5911 5910 5909 5908 5907 5906 5905 5904 5902 5901 5900 5898 5897 5896 5894 5893 5892 5890 5889 5887 5886 5885 5884 5883 5882 5880 5879 5877 5876 5874 5873 5873 5872 5872 5872 5872 5871 5871 5871 5871 5871 5870 5869 5869 5869 5869 5869 5869 5868 5868 5867 5866 5865 5864 5863 5862 5861 5860 5860 5860 5859 5859 5858 5858 5858 5858 5858 5858 5858 5858 5858 5858 5858 5858
5917 5918 5918 5918 5917 5917 5916 5915 5913 5912 5911 5910 5908 5907 5906 5906 5905 5904 5902 5901 5899 5898 5896 5894 5893 5891 5889 5888 5887 5886 5884 5883 5882 5880 5879 5877 5876 5874 5873 5871 5870 5870 5869 5868 5868 5868 5867 5867 5866 5866 5866 5866 5866 5866 5865 5864 5864 5864 5864 5864 5863 5863 5862 5861 5860 5859 5858 5857 5856 5856 5855 5854 5854 5854 5853 5853 5853 5853 5853 5853 5853 5853 5853 5853 5852
5915 5916 5916 5916 5916 5915 5914 5912 5911 5910 5909 5908 5907 5906 5905 5905 5903 5902 5901 5899 5898 5896 5894 5892 5890 5888 5886 5885 5883 5882 5881 5879 5878 5876 5875 5874 5872 5870 5869 5867 5867 5866 5866 5865 5864 5863 5863 5863 5862 5861 5861 5861 5861 5861 5861 5860 5860 5859 5858 5858 5858 5858 5857 5856 5855 5854 5853 5853 5852 5851 5850 5850 5849 5849 5848 5848 5848 5848 5848 5848 5848 5848 5848 5847 5847
5913 5914 5915 5914 5914 5913 5912 5911 5910 5909 5908 5907 5906 5905 5904 5903 5902 5900 5899 5897 5895 5894 5892 5890 5888 5886 5884 5882 5880 5879 5877 5876 5875 5873 5872 5871 5869 5867 5865 5863 5863 5862 5862 5862 5861 5860 5859 5859 5858 5857 5857 5856 5856 5855 5855 5855 5855 5855 5854 5853 5852 5852 5852 5851 5850 5849 5848 5847 5847 5846 5845 5845 5844 5844 5843 5843 5842 5842 5843 5843 5843 5843 5842 5842 5841
5912 5912 5912 5912 5912 5912 5911 5910 5909 5908 5907 5906 5905 5904 5903 5901 5900 5898 5896 5895 5893 5891 5890 5888 5886 5884 5881 5879 5877 5876 5874 5873 5871 5869 5868 5866 5864 5863 5861 5860 5859 5859 5858 5858 5857 5856 5854 5854 5854 5853 5853 5852 5851 5850 5850 5850 5849 5849 5849 5849 5848 5847 5846 5846 5845 5844 5843 5842 5841 5840 5839 5839 5839 5838 5838 5837 5837 5837 5837 5837 5837 5836 5836 5835 5835
5910 5910 5910 5910 5910 5910 5910 5909 5908 5906 5905 5904 5903 5902 5900 5899 5897 5896 5894 5892 5891 5889 5887 5885 5884 5881 5879 5877 5875 5873 5871 5870 5868 5866 5864 5863 5861 5859 5858 5857 5856 5855 5854 5853 5853 5852 5850 5850 5849 5848 5848 5847 5846 5845 5845 5844 5844 5843 5843 5843 5843 5842 5841 5840 5840 5839 5837 5837 5836 5835 5834 5833 5833 5832 5832 5831 5831 5830 5830 5830 5830 5829 5829 5828 5827
5908 5908 5908 5908 5908 5908 5907 5907 5906 5905 5903 5902 5901 5899 5898 5896 5895 5893 5891 5890 5888 5886 5884 5882 5881 5879 5877 5874 5872 5870 5869 5867 5865 5863 5862 5860 5858 5856 5855 5853 5851 5850 5849 5848 5848 5848 5847 5846 5845 5844 5843 5842 5841 5841 5840 5839 5839 5838 5838 5836 5836 5835 5835 5834 5834 5833 5832 5830 5829 5829 5828 5827 5826 5825 5824 5824 5823 5823 5823 5822 5822 5821 5821 5820 5820
5906 5907 5907 5906 5906 5905 5905 5904 5903 5902 5901 5900 5898 5896 5895 5893 5892 5890 5888 5886 5884 5883 5881 5879 5877 5876 5874 5872 5869 5866 5864 5863 5861 5860 5858 5857 5855 5853 5851 5850 5848 5846 5845 5845 5844 5843 5843 5843 5841 5840 5839 5838 5837 5836 5835 5834 5833 5833 5832 5830 5829 5828 5827 5827 5826 5826 5825 5824 5823 5822 5821 5820 5819 5818 5817 5817 5816 5815 5814 5814 5813 5812 5812 5812 5812
5904 5904 5904 5904 5904 5903 5902 5902 5901 5900 5899 5897 5896 5894 5891 5889 5888 5886 5884 5882 5880 5879 5877 5874 5873 5871 5870 5868 5865 5863 5861 5859 5858 5856 5855 5853 5852 5850 5848 5846 5844 5843 5841 5841 5840 5839 5838 5837 5836 5835 5834 5834 5833 5832 5831 5829 5828 5828 5826 5824 5822 5820 5819 5819 5818 5818 5817 5817 5815 5814 5813 5813 5812 5811 5810 5809 5809 5808 5807 5806 5805 5804 5804 5804 5804
5902 5902 5902 5902 5901 5901 5900 5899 5898 5897 5896 5895 5893 5891 5888 5886 5884 5883 5881 5879 5877 5874 5872 5870 5868 5866 5865 5863 5862 5860 5858 5856 5854 5853 5851 5849 5848 5847 5844 5842 5840 5838 5837 5836 5835 5834 5833 5832 5832 5831 5830 5829 5828 5827 5826 5824 5823 5823 5821 5820 5817 5815 5812 5811 5810 5809 5809 5808 5808 5807 5806 5805 5804 5804 5803 5802 5801 5800 5799 5798 5797 5797 5796 5796 5796
5900 5900 5899 5899 5898 5898 5897 5896 5895 5894 5893 5892 5890 5888 5886 5883 5881 5879 5878 5876 5873 5871 5868 5866 5864 5862 5861 5859 5858 5856 5855 5853 5851 5849 5847 5845 5844 5842 5841 5839 5837 5835 5833 5832 5831 5830 5829 5828 5827 5826 5825 5824 5823 5822 5820 5818 5817 5816 5815 5814 5813 5811 5807 5805 5804 5803 5801 5800 5800 5799 5797 5797 5796 5796 5795 5794 5793 5792 5791 5790 5789 5789 5788 5788 5787
5897 5897 5897 5896 5895 5895 5894 5893 5892 5891 5890 5889 5888 5886 5883 5880 5878 5876 5874 5872 5870 5867 5865 5863 5861 5859 5857 5855 5854 5853 5851 5850 5848 5845 5843 5842 5840 5838 5837 5835 5834 5832 5830 5829 5827 5826 5825 5824 5823 5822 5821 5820 5818 5816 5814 5813 5812 5810 5808 5807 5806 5805 5803 5801 5799 5797 5796 5794 5793 5792 5791 5790 5790 5789 5787 5787 5786 5785 5784 5783 5782 5781 5780 5780 5779
5895 5895 5895 5894 5893 5892 5891 5890 5889 5888 5887 5886 5884 5883 5880 5878 5875 5872 5870 5868 5866 5864 5861 5859 5858 5856 5854 5852 5850 5849 5848 5846 5844 5842 5840 5838 5837 5835 5833 5832 5830 5829 5827 5826 5824 5822 5821 5819 5818 5817 5816 5814 5812 5810 5808 5807 5805 5804 5802 5800 5799 5798 5796 5795 5793 5791 5789 5789 5788 5787 5786 5784 5783 5782 5781 5780 5779 5777 5776 5775 5774 5773 5772 5772 5771
5892 5892 5892 5892 5891 5889 5888 5886 5885 5884 5883 5882 5881 5879 5877 5874 5871 5869 5866 5864 5862 5860 5858 5856 5854 5852 5850 5848 5847 5846 5845 5843 5840 5838 5836 5834 5833 5831 5829 5828 5826 5824 5823 5822 5820 5818 5816 5815 5813 5811 5810 5808 5806 5804 5802 5800 5799 5797 5796 5794 5793 5791 5789 5788 5787 5785 5782 5782 5782 5782 5780 5778 5776 5775 5774 5772 5771 5769 5768 5767 5765 5764 5763 5762 5762
5889 5889 5889 5888 5887 5886 5884 5883 5882 5881 5880 5879 5877 5875 5873 5870 5868 5865 5862 5860 5858 5856 5854 5852 5850 5848 5846 5844 5843 5842 5841 5839 5837 5835 5832 5830 5829 5828 5826 5823 5821 5820 5819 5818 5816 5814 5812 5811 5809 5807 5805 5802 5800 5798 5796 5794 5792 5790 5789 5787 5785 5784 5782 5781 5780 5778 5775 5774 5775 5775 5773 5769 5767 5767 5766 5764 5762 5760 5759 5758 5756 5755 5754 5753 5753
5886 5885 5885 5884 5883 5882 5881 5880 5879 5878 5876 5875 5873 5871 5869 5867 5864 5861 5858 5856 5854 5852 5850 5848 5846 5844 5842 5840 5839 5839 5837 5835 5833 5831 5828 5826 5825 5824 5822 5819 5817 5816 5815 5814 5812 5809 5807 5806 5804 5801 5799 5796 5794 5791 5789 5787 5785 5783 5781 5780 5778 5777 5776 5774 5773 5771 5768 5767 5767 5767 5765 5761 5758 5758 5758 5755 5754 5753 5751 5749 5748 5746 5745 5745 5744
5882 5882 5881 5880 5879 5878 5877 5876 5875 5874 5872 5871 5869 5868 5866 5863 5860 5857 5855 5853 5851 5848 5846 5844 5842 5841 5839 5837 5836 5835 5833 5831 5829 5827 5825 5823 5821 5820 5818 5816 5813 5811 5810 5808 5807 5805 5802 5800 5798 5796 5792 5790 5788 5785 5782 5780 5778 5776 5774 5773 5771 5770 5768 5766 5765 5764 5761 5759 5758 5759 5758 5753 5750 5750 5750 5747 5746 5745 5743 5741 5739 5738 5737 5736 5736
5878 5878 5877 5876 5875 5874 5873 5872 5871 5869 5868 5867 5865 5864 5862 5860 5857 5854 5851 5849 5848 5846 5843 5841 5839 5837 5836 5834 5832 5831 5829 5827 5825 5823 5821 5819 5818 5816 5813 5811 5809 5807 5805 5802 5800 5798 5796 5794 5792 5790 5786 5783 5781 5779 5776 5774 5772 5770 5768 5766 5765 5763 5761 5759 5758 5756 5753 5751 5750 5750 5750 5746 5742 5742 5742 5739 5738 5737 5734 5732 5731 5729 5729 5728 5728
5874 5874 5873 5872 5872 5871 5870 5869 5867 5866 5864 5863 5861 5860 5858 5856 5853 5850 5848 5846 5845 5843 5840 5838 5836 5834 5833 5831 5829 5827 5825 5823 5821 5818 5817 5815 5813 5811 5809 5806 5804 5801 5799 5796 5794 5792 5789 5787 5785 5783 5780 5778 5775 5773 5770 5768 5766 5763 5762 5760 5759 5756 5755 5753 5751 5748 5745 5743 5741 5741 5742 5739 5735 5734 5734 5732 5731 5730 5726 5724 5722 5721 5721 5721 5721
5870 5870 5869 5869 5868 5867 5866 5865 5864 5862 5860 5859 5857 5856 5854 5852 5849 5847 5845 5843 5841 5839 5837 5835 5833 5831 5829 5827 5825 5823 5821 5819 5816 5814 5813 5811 5808 5806 5804 5801 5799 5796 5793 5791 5789 5786 5784 5781 5779 5776 5774 5772 5769 5767 5764 5761 5759 5757 5755 5754 5752 5749 5748 5746 5744 5741 5738 5735 5733 5733 5734 5732 5728 5727 5727 5724 5723 5722 5719 5716 5714 5714 5714 5714 5713
5867 5866 5866 5865 5864 5863 5862 5860 5858 5857 5856 5855 5853 5852 5850 5848 5846 5843 5841 5839 5837 5835 5833 5831 5829 5828 5826 5823 5821 5819 5816 5814 5812 5810 5808 5806 5804 5801 5799 5797 5794 5791 5789 5786 5784 5780 5778 5775 5772 5770 5767 5765 5763 5760 5758 5755 5752 5750 5749 5747 5744 5742 5741 5739 5737 5734 5731 5728 5726 5725 5725 5724 5721 5720 5719 5718 5717 5715 5712 5709 5708 5707 5707 5706 5706
5863 5862 5862 5861 5860 5858 5857 5856 5854 5852 5851 5850 5849 5848 5846 5843 5841 5839 5837 5835 5833 5832 5829 5827 5825 5824 5822 5820 5817 5815 5812 5810 5808 5805 5803 5801 5798 5796 5794 5791 5788 5786 5783 5780 5777 5774 5771 5768 5765 5763 5761 5758 5756 5753 5751 5748 5746 5743 5741 5739 5737 5735 5733 5731 5729 5728 5725 5722 5719 5718 5717 5716 5714 5712 5711 5711 5711 5708 5705 5703 5702 5701 5700 5700 5700
5858 5858 5857 5856 5855 5854 5852 5851 5850 5848 5847 5846 5845 5843 5841 5839 5837 5835 5833 5831 5829 5827 5825 5823 5821 5819 5817 5815 5813 5810 5808 5805 5803 5800 5798 5795 5792 5790 5787 5785 5782 5780 5777 5774 5771 5768 5765 5761 5759 5756 5754 5751 5748 5746 5744 5741 5738 5735 5733 5732 5730 5728 5726 5724 5722 5721 5719 5715 5712 5711 5711 5709 5707 5705 5704 5704 5705 5703 5699 5697 5697 5695 5694 5693 5693